CZ-6A DEB

Satellite information

Favourite Embed

Satellite Type and Status

DEBRISIN ORBIT

Key statistics

Satellite CZ-6A DEB at a glance.

Uptime

1129

Days in orbit

Revolutions

≈ 14.2

Per day

Orbit

SSO

Sun Synchronous Orbit

Inclination

98.7

Latest

Satellite identification and parameters

Extended collection of information and parameters for CZ-6A DEB.

Object identification

Identified? True

Debris? True

Object name: CZ-6A DEB

International designator: 2022-151ADT

Object number (NORAD): 56595

Object ID (CCSDS): 56595

Country: PEOPLES REPUBLIC OF CHINA (PRC)

Current information (Y/N): Y

RCS size: SMALL

Orbital parameters

Period: 101.358 minutes

Inclination: 98.7275 deg

SMA: 7201.101 km

Apoapsis: 919.074 km

Periapsis: 726.857 km

RAAN: 346.4752 deg

Eccentricy: 0.0133464

Argument of periapsis: 357.5613 deg

Mean anomaly: 2.4898 deg

Mean motion: 14.20706752 rev/day

Mean motion (dot): 0.00003172 rev/day2

B* drag term: 0.0013633798 1/REarth

Two-line elements (TLE)

Creation date: Dec. 13, 2025, 4:32 a.m.

Reference frame: TEME

Reference center: EARTH

Epoch: Dec. 12, 2025, 7:16 p.m. UTC

TLE line 0: 0 CZ-6A DEB

TLE line 1: 1 56595U 22151ADT 25346.80317747 .00003172 00000-0 13634-2 0 9990

TLE line 2: 2 56595 98.7275 346.4752 0133464 357.5613 2.4898 14.20706752136423

Live tracking on map

Real-time ground track for satellite CZ-6A DEB.

In-orbit conjunctions

A list of the most updated potential collisions computed for object CZ-6A DEB.

Target Orbit TCA Probability of collision Miss distance Type
FENGYUN 1C DEB SSO 2025-09-23 10:11:43 0.0001607647 389.0 (m) DEBRIS
IRIDIUM 33 DEB LEO 2024-11-10 07:01:54 0.0007258894 467.0 (m) DEBRIS

Associated space launch

Chinese satellite reported for atmospheric/ocean/environmental/spatial parameter research purposes, details TBD.

CZ-6A DEB was lifted into orbit during the mission ‘Long March 6A | Yunhai 3’, on board a Long March 6A space rocket.

The launch took place on Nov. 11, 2022, 10:52 p.m. from Launch Complex 9A.

For more information about the launch, click the button.

Launch to space Long March 6A | Yunhai 3
Long March 6A | Yunhai 3

Agency: N/A

Status: Launch Successful

Launch date: Nov. 11, 2022, 10:52 p.m. UTC

Rocket: Long March 6A

Launch pad: Launch Complex 9A

Location: Taiyuan Satellite Launch Center, People's Republic of China

...

Latest news about this satellite

There are no fresh news available about this satellite. Check back as we update our databases every day.


Newsletter sign-up

Weekly statistics, charts and insights to help you stay on top of the space industry.